Wind_Speed
50 54 57 61 63 64 61 53 43 37 36 38 41 45 50 54 58 60 62 63 62 60 60 62 64 64 63 62 60 57 54 53 54 55 55 55 55 55 57 58 59 60 61 61 61 60 58 56 55 54 54 55 55 56 55 55 53 52 51 50 49 49 49 49 50 50 50 49 49 49 49 48 48 47 46 46 45 45 44 45 45 47 48 48 48 48
45 48 52 57 61 64 65 61 54 45 36 31 32 35 40 46 50 54 56 57 58 57 57 58 62 65 66 67 67 65 61 59 58 59 59 59 58 58 58 59 60 60 59 59 59 58 58 58 58 57 57 57 58 59 58 57 56 54 52 51 50 50 50 50 51 52 52 53 53 53 53 52 51 50 48 47 46 45 45 45 46 47 48 49 49 49
42 44 48 53 57 60 63 65 63 57 47 35 29 29 32 37 42 45 47 50 53 54 54 55 59 63 66 68 69 69 67 65 64 64 63 62 61 61 61 62 62 61 60 59 58 58 59 60 61 61 60 59 60 60 59 59 58 56 54 52 51 50 50 50 51 52 53 54 55 56 57 56 54 52 50 49 47 46 46 47 47 48 48 49 49 49
40 41 44 48 51 54 58 62 64 63 58 46 34 27 28 33 36 38 40 43 47 50 52 54 56 59 63 65 66 66 65 65 65 66 65 64 63 63 64 64 64 64 63 62 61 61 61 62 63 62 61 60 60 60 60 60 59 58 56 54 52 50 49 49 50 51 52 54 56 57 57 56 55 53 51 50 49 48 47 47 47 47 47 47 47 47
39 38 39 41 44 48 53 57 60 63 63 56 44 32 27 29 32 34 35 37 41 45 49 51 53 56 59 60 61 61 61 61 63 64 65 65 64 64 65 66 67 67 67 66 65 65 64 64 64 64 63 62 61 61 62 61 61 60 59 56 54 52 50 50 50 51 52 54 56 56 56 54 53 52 51 50 50 49 47 46 45 45 45 45 45 45
36 34 33 34 37 42 48 51 55 59 62 62 55 43 32 27 27 28 29 31 35 39 44 47 50 53 55 56 57 57 57 58 59 61 62 63 64 64 66 67 69 71 71 70 69 68 67 67 66 66 66 64 63 63 63 62 62 61 60 59 56 54 52 51 51 51 52 54 56 56 54 52 51 50 49 49 48 47 45 44 43 43 43 43 42 42
34 30 29 30 34 39 43 47 52 56 59 62 61 55 45 34 27 23 23 25 29 33 39 44 47 50 53 54 55 55 55 56 57 58 59 60 62 63 65 67 70 72 73 73 73 72 71 70 69 69 68 67 66 66 65 63 62 62 61 60 58 55 53 52 51 51 53 54 55 55 54 52 50 48 47 47 46 45 44 42 42 42 41 41 41 41
33 29 28 29 32 36 40 44 48 52 56 59 61 60 55 46 36 29 25 24 25 28 34 40 45 47 50 52 54 54 55 55 55 56 56 57 59 60 62 65 67 70 72 74 74 74 74 73 72 71 70 69 68 67 66 65 64 63 62 59 57 55 53 51 51 51 53 54 55 55 55 53 51 49 47 46 45 44 43 42 42 41 41 41 40 40
32 29 28 29 31 34 37 40 44 48 51 55 58 60 59 55 47 39 32 28 25 25 30 37 43 46 48 50 52 54 54 54 54 54 54 55 56 57 58 61 63 65 68 70 71 72 73 73 73 73 72 70 69 67 66 65 64 62 59 57 54 52 51 50 50 51 52 53 55 56 57 56 55 52 50 48 46 45 44 42 42 42 41 41 41 41
32 29 28 29 31 33 34 36 39 43 46 50 54 58 60 58 53 47 39 32 27 24 27 33 41 45 46 47 50 52 53 53 53 53 53 53 53 54 56 59 61 62 63 64 65 67 68 70 71 71 70 69 67 65 63 62 60 57 55 52 50 49 48 48 49 50 51 53 55 57 58 58 58 56 54 51 48 46 44 43 43 43 42 42 42 42
31 28 28 28 29 30 31 32 34 36 39 44 49 55 59 58 56 51 44 36 28 24 24 30 38 44 46 46 47 50 52 53 53 52 51 51 51 52 55 58 60 60 60 61 62 63 64 65 66 66 65 64 62 60 57 55 53 51 49 47 46 46 47 48 49 50 51 52 53 55 56 57 58 59 58 55 52 49 47 45 44 43 43 43 42 42
31 28 28 27 27 27 28 29 30 32 35 40 44 49 53 56 55 52 46 37 29 24 23 26 34 41 45 45 45 46 49 52 53 52 51 49 49 51 54 57 58 59 59 60 61 61 61 61 60 59 57 56 54 51 49 48 46 45 44 43 44 45 46 48 49 50 50 50 50 51 52 55 57 59 59 59 57 54 51 48 46 45 44 44 43 43
30 28 28 27 27 27 28 30 31 32 34 37 39 42 46 51 53 52 46 39 32 26 23 23 28 36 43 45 43 43 46 50 53 53 51 49 48 49 51 52 54 55 56 58 59 59 58 55 53 51 49 47 45 44 43 42 41 40 40 41 42 44 45 46 47 47 47 46 46 47 48 52 55 58 60 62 62 60 57 53 50 48 46 45 45 45
31 29 28 27 27 28 29 30 31 31 31 33 34 36 40 45 49 50 48 44 38 30 25 23 24 29 37 42 42 41 42 47 51 52 52 50 49 48 48 48 48 48 49 51 53 53 51 49 47 45 44 42 42 41 40 39 38 37 37 39 41 42 42 42 42 43 43 43 43 43 45 47 50 54 58 61 63 64 63 60 57 54 51 49 48 47
32 30 29 29 29 29 29 30 29 29 28 29 30 33 37 43 46 49 49 49 44 37 30 26 25 25 30 37 40 39 39 44 49 52 51 50 49 49 48 48 46 44 44 45 47 47 47 45 44 43 42 42 42 41 40 39 38 37 37 38 40 41 41 41 40 41 41 42 42 43 43 44 46 49 52 56 59 62 64 65 63 60 57 54 52 51
32 31 30 31 30 30 29 29 28 27 26 26 28 31 34 38 42 46 48 50 47 42 36 31 28 26 25 30 35 37 37 41 47 50 50 49 49 49 49 48 47 46 44 44 45 46 45 45 44 44 43 43 43 42 41 40 39 38 38 39 40 41 41 41 41 41 42 43 44 44 45 45 46 47 48 50 52 55 59 62 64 63 62 59 57 55
32 31 31 31 30 30 29 29 28 26 25 24 26 28 31 33 36 41 45 48 47 45 40 35 31 28 24 24 29 34 36 39 44 48 48 47 46 47 48 48 48 48 47 46 46 46 46 45 45 44 44 43 42 41 40 40 39 39 40 40 41 42 42 42 42 42 43 45 46 46 47 47 48 48 48 48 48 49 52 54 57 59 60 59 59 58
30 29 29 29 29 29 29 29 28 26 24 23 24 25 27 29 33 37 41 44 46 45 43 39 33 28 23 20 22 29 34 36 40 44 45 44 43 43 45 46 47 47 47 47 47 47 46 46 45 44 43 42 41 40 40 40 40 40 41 41 42 42 43 43 43 44 45 46 47 48 48 49 49 49 48 48 48 49 49 50 51 52 53 54 55 55
27 27 27 27 27 27 28 28 28 27 24 22 21 21 22 25 29 33 36 40 42 43 42 40 35 29 23 19 18 21 27 31 34 38 41 42 41 41 42 43 45 45 45 45 45 46 45 45 45 44 43 42 41 41 40 40 41 41 41 42 42 43 44 44 45 46 46 47 48 49 49 50 50 50 50 50 50 50 50 50 50 50 50 51 51 52
24 24 24 25 26 27 28 29 28 27 24 21 19 18 19 21 24 27 31 34 37 39 41 40 36 32 26 21 17 16 18 22 26 30 34 37 39 40 40 41 43 44 44 43 43 43 44 44 44 44 43 42 42 41 41 41 42 42 43 43 44 45 46 47 47 48 49 49 50 50 51 51 52 52 52 52 52 52 52 52 52 52 52 52 52 52
23 23 23 25 26 28 29 29 29 27 23 20 18 16 16 17 19 21 24 27 31 35 37 38 36 33 29 24 20 18 16 16 18 22 26 30 33 35 37 39 40 41 42 41 41 41 41 41 41 41 41 40 40 40 41 41 42 43 44 45 46 47 48 48 49 49 49 49 50 50 51 52 53 53 53 54 54 54 54 53 53 53 52 52 52 52
24 23 24 25 27 29 30 29 28 26 23 20 18 16 15 15 15 16 18 21 24 28 32 33 33 31 28 25 22 21 18 17 15 15 18 22 26 30 33 35 37 38 38 39 39 38 38 38 38 37 37 37 37 38 38 40 41 42 43 44 45 46 47 47 47 47 47 47 47 48 49 50 51 52 53 53 53 52 52 51 50 50 50 49 49 49
25 25 25 26 27 28 29 28 27 26 24 22 20 18 17 16 15 15 15 16 18 21 24 26 28 28 27 25 23 22 21 19 16 15 15 18 23 26 30 32 34 35 35 36 36 36 35 35 35 35 34 34 35 35 36 38 39 40 42 43 43 43 44 44 44 44 44 44 45 45 46 47 48 49 49 49 49 49 48 48 48 48 49 49 49 48
27 26 26 27 27 27 27 26 26 26 25 24 23 20 19 17 17 16 15 15 15 17 19 21 23 24 25 24 23 22 22 21 19 17 16 18 21 25 28 30 32 34 34 35 35 34 34 33 33 33 33 33 33 34 35 36 37 39 40 41 42 42 42 42 42 43 44 44 44 45 46 46 46 46 46 46 45 45 45 46 47 48 49 50 50 48
29 28 28 28 27 26 25 24 24 25 26 26 25 23 21 19 19 18 17 16 16 16 17 18 19 20 20 20 20 20 21 21 20 19 20 20 22 25 28 30 32 34 34 34 34 33 33 33 34 33 33 33 34 34 35 35 36 37 38 39 40 41 42 43 44 44 45 45 45 46 46 46 46 45 44 44 43 43 44 45 46 47 47 47 46 44
30 29 29 28 27 25 23 22 23 24 25 26 26 24 22 21 21 20 20 19 19 18 18 18 17 17 17 17 17 18 19 20 20 21 22 23 25 27 29 31 34 35 35 35 35 34 34 34 35 34 34 35 35 35 36 36 36 37 37 37 38 39 41 43 44 45 45 45 45 45 45 45 44 44 44 43 43 44 44 44 44 43 41 40 38 36
31 30 29 28 27 25 23 22 22 23 24 26 26 25 23 23 22 22 22 21 21 20 20 19 19 18 17 17 17 18 18 19 20 21 23 24 27 30 32 33 35 36 36 36 35 35 35 35 35 35 35 36 36 36 37 37 38 38 37 37 38 38 40 41 43 43 43 42 41 41 41 41 40 40 40 40 41 41 40 39 38 36 33 31 29 28
29 29 29 29 28 26 24 23 23 23 24 25 26 26 25 24 23 23 22 21 21 20 21 20 20 19 19 18 18 18 18 19 20 21 22 23 26 30 32 33 35 36 36 35 35 35 34 35 35 35 35 35 36 36 37 38 38 38 38 37 37 37 38 39 39 39 38 36 35 34 34 33 33 33 32 32 32 31 31 29 28 26 23 22 21 20
28 29 30 30 29 27 25 24 24 24 24 25 27 27 26 25 23 22 21 20 20 20 21 20 20 19 18 18 18 18 19 20 20 20 19 20 23 27 28 31 32 33 33 32 32 33 33 33 33 32 32 33 33 33 34 35 35 35 35 35 35 35 35 35 34 33 31 29 28 27 26 25 24 24 24 23 23 22 21 20 19 18 17 16 16 16
26 28 29 30 30 28 26 25 24 24 25 25 26 27 26 25 23 22 21 20 20 19 20 19 19 18 18 17 17 18 18 19 18 17 16 16 19 21 24 26 28 28 28 27 28 29 30 31 31 30 30 30 30 30 30 30 30 30 30 30 31 30 30 29 28 26 25 23 21 20 20 19 19 18 18 17 17 16 16 15 14 14 14 14 14 14
24 25 27 28 28 27 26 25 24 24 24 24 24 24 24 23 23 22 21 20 19 18 18 17 17 17 16 16 16 16 17 16 16 15 14 13 15 17 19 21 23 23 22 23 24 26 27 28 27 27 27 27 27 27 26 25 25 25 25 25 24 24 23 22 21 20 19 18 17 16 16 15 15 15 14 14 14 13 13 13 13 13 13 13 14 14
22 23 24 25 25 25 24 22 22 21 22 22 21 20 21 21 21 21 21 20 19 18 17 16 16 16 16 15 14 14 15 14 14 14 13 13 14 15 17 18 19 19 19 20 21 22 23 23 22 22 23 23 23 23 22 21 20 20 19 19 18 17 16 16 15 15 14 14 13 13 13 12 12 12 12 12 12 12 12 12 13 13 13 13 14 14
22 22 22 23 23 22 21 20 19 19 19 19 19 18 19 19 20 20 20 20 19 18 17 17 16 16 16 16 16 15 15 15 15 15 14 15 16 16 17 17 17 17 17 17 18 18 18 18 18 17 17 18 18 18 17 17 16 16 15 15 14 13 13 12 11 11 11 11 11 11 11 11 11 11 11 12 12 12 12 12 13 13 13 13 14 14
20 21 22 22 21 21 19 18 18 18 18 18 18 18 19 20 20 20 20 20 19 19 19 18 17 16 16 17 17 17 17 17 17 16 16 16 17 17 17 17 17 17 17 16 16 15 16 16 16 15 15 15 15 14 14 14 14 13 13 13 13 12 11 10 10 10 10 10 10 10 10 11 11 11 12 12 12 13 13 13 13 13 13 14 14 14
18 19 20 20 20 19 18 17 16 16 16 16 16 17 18 19 20 21 20 20 19 19 19 19 18 18 17 17 17 17 17 17 17 17 17 17 17 17 17 17 17 18 18 17 17 16 15 15 15 15 15 14 14 13 13 12 12 12 12 12 12 12 11 10 10 10 10 10 11 11 11 11 11 12 12 12 13 13 13 13 13 13 14 14 15 15
15 15 16 17 17 16 16 15 14 15 15 15 15 14 14 16 19 20 21 20 19 19 19 19 19 19 18 18 17 16 16 16 17 17 17 17 17 18 17 17 17 17 18 17 17 16 16 15 15 15 14 14 13 12 12 12 11 11 11 11 11 11 11 10 10 11 11 11 11 11 12 12 12 12 13 13 13 13 13 13 14 14 15 15 16 17
13 13 13 13 13 13 13 13 13 14 14 15 15 14 13 13 15 18 19 19 18 18 18 18 18 18 18 17 17 16 15 15 15 16 16 17 17 17 17 17 17 17 17 17 16 16 16 15 15 15 14 13 12 11 11 11 11 11 10 10 10 10 10 11 11 11 11 12 12 12 12 12 13 13 13 13 13 14 14 14 15 15 16 16 17 17
13 13 12 12 12 12 12 12 12 13 13 14 15 15 14 12 13 14 16 16 16 15 15 15 15 15 14 14 15 15 14 14 14 14 14 15 15 16 16 15 16 16 16 16 16 15 14 14 13 13 13 12 12 11 11 10 10 10 10 10 10 11 11 11 11 12 12 12 12 13 13 13 13 13 14 14 14 15 15 15 16 16 17 17 17 18
14 13 13 13 12 12 12 12 12 12 13 13 14 14 14 13 12 12 12 13 13 13 13 13 12 12 12 12 12 12 12 12 12 12 12 13 13 14 14 13 13 13 14 14 14 14 13 13 12 12 11 11 11 11 11 11 11 11 11 11 11 12 12 12 12 12 13 13 13 13 13 13 14 14 14 15 15 15 16 16 16 16 17 17 17 17
15 14 14 13 13 13 13 13 12 12 12 13 13 14 13 13 12 12 11 11 11 11 12 11 11 11 11 11 11 11 11 11 11 11 11 11 12 12 13 12 12 11 12 12 12 12 12 12 12 12 11 11 11 11 11 11 12 12 12 12 12 13 13 13 13 13 14 13 13 13 13 14 14 14 15 15 15 15 16 16 16 16 17 17 17 17
15 15 14 14 14 14 14 13 13 13 13 13 13 13 13 12 12 12 11 11 11 11 11 11 11 11 11 11 11 11 11 10 10 10 10 10 11 11 12 12 12 11 11 11 11 11 11 11 11 11 12 12 12 12 12 12 13 13 13 13 13 14 13 13 14 14 14 14 14 14 14 14 14 14 15 15 15 16 16 16 16 17 17 17 17 17
16 14 14 13 13 14 14 14 13 13 13 13 12 12 12 12 12 11 11 10 10 10 10 10 10 10 10 10 11 11 11 10 10 10 10 11 11 11 12 12 12 12 12 11 11 11 11 11 12 12 12 12 13 13 13 13 13 14 14 14 14 14 14 14 15 14 14 14 14 14 14 14 14 14 15 15 15 16 16 16 16 17 17 17 17 17
15 14 12 12 12 12 12 13 13 13 13 12 12 12 13 13 12 12 11 10 10 9 9 9 9 10 10 10 11 11 11 11 11 11 11 11 12 12 12 12 12 12 12 12 12 12 12 12 12 13 13 13 13 14 14 14 14 14 15 15 14 14 14 14 14 14 14 14 14 14 14 14 15 15 15 16 16 16 16 16 17 17 17 17 17 17
16 13 11 10 10 10 11 12 13 13 13 13 13 13 13 13 13 12 12 11 10 9 9 9 9 10 10 10 11 11 11 11 11 11 12 12 12 12 12 12 12 12 13 13 13 12 12 13 13 13 13 14 14 14 14 14 14 14 15 15 15 14 14 14 14 14 14 15 15 14 15 15 15 16 16 16 16 16 16 17 17 17 17 17 17 17
16 13 11 10 9 9 11 13 14 14 14 13 12 12 12 12 12 12 11 11 10 9 9 9 9 10 10 10 11 11 11 12 12 12 12 12 12 12 12 12 12 12 12 12 12 12 12 13 13 13 14 14 14 14 14 14 14 14 15 15 15 15 15 14 14 14 15 15 15 15 15 15 16 16 16 16 16 16 17 17 17 17 17 17 18 18
15 13 11 10 10 9 10 12 14 15 14 13 12 11 10 10 10 10 10 10 10 10 10 10 10 10 10 11 11 11 12 12 12 12 13 13 13 13 13 12 12 12 12 12 12 12 12 13 13 13 13 14 14 14 14 14 14 14 15 14 14 14 14 14 14 15 15 15 15 15 16 16 16 16 17 17 17 17 18 18 18 18 18 18 19 19
14 13 13 12 11 10 10 11 13 14 13 12 11 10 10 10 10 10 10 10 10 10 10 10 11 11 11 11 12 12 13 13 13 13 14 14 14 13 13 13 13 13 12 12 12 12 12 12 12 12 13 13 14 14 14 14 14 14 15 15 14 15 15 15 15 15 15 16 16 16 16 16 17 17 17 17 18 18 19 19 19 19 19 20 20 20
14 14 14 14 13 12 11 11 12 13 12 11 10 10 10 10 10 10 10 11 11 11 11 11 11 11 12 12 13 14 14 14 15 15 15 15 15 15 14 14 14 13 13 13 12 12 12 12 12 12 13 13 14 14 14 14 14 15 15 15 15 15 15 15 15 15 16 16 17 17 17 17 17 18 18 18 18 19 19 19 20 20 20 21 21 21
14 14 14 14 13 12 11 11 11 12 12 11 11 11 11 11 11 11 11 11 11 11 11 11 11 11 12 12 13 14 14 15 15 16 16 16 16 16 16 15 15 14 14 14 13 13 13 13 13 13 13 13 14 14 14 14 15 15 15 15 15 16 16 16 16 16 16 17 17 17 17 18 18 18 18 19 19 19 20 20 20 20 21 21 21 21
14 14 14 14 14 13 12 11 11 12 12 12 12 12 12 12 12 11 11 11 11 11 11 11 11 11 11 12 13 13 14 14 15 16 16 16 17 16 16 16 15 15 14 14 14 14 14 14 14 14 14 14 14 14 14 15 15 15 16 16 16 16 16 16 17 17 17 17 17 18 18 18 18 19 19 19 19 20 20 20 20 21 21 21 21 22
15 16 16 15 15 14 14 13 13 13 13 13 13 13 13 12 12 12 12 12 12 11 11 11 11 10 11 11 11 12 12 13 13 14 15 15 15 16 16 16 15 15 15 14 14 14 14 14 14 15 15 15 16 15 15 15 16 16 16 17 17 17 17 17 17 17 17 17 18 18 18 18 19 19 19 19 19 20 20 20 20 20 20 21 21 21
Wind_Direction
266 268 268 267 266 264 260 256 250 239 224 217 215 217 219 222 224 227 230 232 233 234 236 239 240 239 238 237 236 236 235 232 230 229 229 229 229 228 228 229 229 231 232 233 233 234 234 235 235 236 237 239 240 241 242 242 243 243 244 244 245 246 247 249 250 252 253 253 254 254 254 254 253 251 249 247 244 243 242 241 242 243 244 243 242 241
263 266 268 268 268 266 263 260 256 251 239 224 215 213 214 215 217 220 224 226 228 230 232 236 238 239 237 237 239 241 241 240 238 237 235 233 231 230 230 229 229 229 230 232 233 234 234 235 235 236 237 239 240 241 242 242 243 243 243 244 246 247 249 250 252 253 254 255 255 255 255 254 252 250 248 246 244 243 242 243 243 244 244 243 243 242
258 262 265 267 268 267 266 264 261 258 253 242 227 216 213 212 212 214 217 220 222 224 226 230 234 237 238 238 238 240 240 240 240 239 238 236 233 232 231 230 230 229 230 231 232 233 234 236 237 238 238 239 241 242 242 243 243 244 244 245 246 248 250 251 253 254 255 255 255 255 254 252 250 249 247 245 243 242 243 243 244 243 243 243 243 242
255 258 262 265 267 268 268 267 265 263 259 254 243 227 216 212 212 214 216 218 219 220 221 223 228 232 236 238 238 238 237 237 238 238 239 237 235 233 233 232 231 231 230 230 231 233 234 236 237 238 239 240 241 242 244 244 244 245 245 245 246 248 249 251 252 253 254 254 253 252 251 249 247 245 244 243 243 243 242 243 242 242 242 242 243 243
252 255 259 263 267 269 270 269 269 267 264 260 253 242 225 215 214 215 218 219 219 219 219 219 222 226 231 235 237 236 235 235 236 236 237 237 236 235 234 234 234 233 232 231 232 232 234 235 237 238 239 240 241 242 244 245 245 245 245 245 246 247 248 250 251 252 252 252 250 248 246 244 243 241 241 242 242 242 241 241 240 241 241 242 243 244
248 251 255 261 265 269 271 271 271 270 268 264 258 252 243 231 223 221 221 221 221 220 219 218 218 221 227 232 234 235 234 234 235 235 235 235 235 235 235 235 235 235 234 233 233 233 233 234 236 237 239 239 241 242 243 243 244 244 245 245 245 246 247 248 250 251 251 251 248 245 242 240 240 239 239 239 240 240 240 240 240 241 242 243 244 245
246 247 250 255 261 267 270 272 273 272 271 267 262 257 253 250 245 240 235 231 228 224 220 218 217 220 225 230 233 233 233 234 234 235 235 235 235 235 236 236 236 236 236 236 235 235 235 235 235 237 238 239 241 242 242 241 242 243 245 245 245 245 246 247 249 250 251 251 248 245 241 239 238 239 239 238 238 239 239 240 241 242 243 244 245 246
245 245 245 249 256 263 269 272 273 273 273 270 266 262 258 257 257 259 259 256 246 234 224 219 217 219 224 229 232 233 232 233 233 234 235 235 235 236 236 237 237 237 237 237 237 237 237 237 237 237 238 239 240 241 241 241 241 243 244 245 245 244 244 245 247 249 250 250 248 245 241 239 238 239 239 239 239 239 239 240 241 243 244 245 246 246
245 245 243 246 253 261 267 271 273 275 275 273 270 266 262 261 260 263 268 272 266 250 233 222 218 218 222 227 231 232 232 232 233 234 234 235 236 237 238 238 237 237 237 237 238 238 238 238 238 239 239 240 240 240 240 241 242 243 243 243 242 242 242 244 247 249 250 250 249 246 243 240 239 239 239 239 239 239 239 239 241 242 244 245 246 247
244 244 244 247 253 259 264 268 273 276 277 276 273 269 266 264 264 265 267 272 273 264 244 227 220 218 221 225 230 232 233 233 233 234 234 235 236 237 237 236 235 235 236 237 237 238 238 239 239 239 239 239 238 238 238 240 241 241 240 239 239 241 243 246 248 250 251 251 251 249 246 242 240 238 239 239 239 239 239 239 240 241 243 245 246 247
242 242 243 247 252 257 261 265 270 276 279 279 276 272 269 267 267 267 268 270 275 273 256 235 224 219 220 223 227 231 233 234 234 234 234 234 235 236 236 234 233 233 233 234 235 236 236 237 237 237 236 235 234 234 235 237 237 237 236 237 239 242 246 248 249 250 251 251 252 251 248 244 240 239 238 238 238 239 239 239 240 242 244 245 247 248
241 240 242 246 250 253 255 260 266 273 278 279 278 276 273 270 268 267 268 269 274 278 269 247 231 223 221 222 225 229 232 233 233 233 233 234 235 236 235 234 232 231 232 231 231 232 232 233 232 231 230 228 228 230 232 234 234 235 237 239 243 246 248 249 249 249 249 250 251 250 247 244 241 239 238 237 237 237 238 239 240 242 245 247 248 249
238 238 240 243 246 248 249 253 259 267 274 278 280 280 278 274 270 267 266 267 272 279 281 268 248 232 224 222 224 228 230 232 232 232 232 232 234 235 235 234 233 232 231 230 229 228 228 227 226 224 223 223 225 228 231 233 235 237 240 244 247 249 250 250 249 248 248 248 249 249 248 247 244 242 240 239 238 238 238 238 240 242 245 248 250 250
234 234 236 238 241 243 245 248 254 263 271 277 279 281 280 278 274 269 265 265 268 274 285 286 273 251 233 225 224 227 230 231 231 230 230 231 233 234 235 234 233 232 230 228 225 224 223 222 221 221 222 224 226 229 232 234 237 240 243 247 249 251 251 250 248 246 246 246 248 249 250 250 249 247 246 244 243 241 240 239 240 242 244 247 249 250
229 229 232 236 239 240 243 246 252 261 269 275 279 282 283 281 277 272 268 266 266 269 278 288 289 275 249 233 227 228 232 232 230 229 229 230 231 233 233 233 232 231 229 225 222 221 221 221 222 224 225 228 230 232 234 237 239 242 245 247 250 251 251 250 248 246 245 245 247 248 249 250 251 250 250 249 248 246 244 242 241 242 244 246 248 249
226 226 230 234 237 239 241 244 250 257 265 272 277 280 281 281 279 275 271 268 266 267 271 281 290 290 271 245 233 230 233 233 230 227 226 228 229 231 232 232 231 230 228 225 223 222 223 224 225 227 228 231 233 235 237 239 241 243 245 247 248 249 250 249 248 247 246 247 248 249 249 250 250 251 251 251 250 249 247 245 244 244 244 245 247 248
223 224 227 232 235 237 239 242 246 252 260 268 274 278 280 281 280 278 275 271 268 267 268 274 285 292 288 265 245 236 234 234 231 227 224 223 225 227 229 229 229 228 227 226 225 225 225 226 226 227 229 232 235 237 238 240 241 242 244 245 247 247 248 247 247 246 246 248 249 251 251 251 251 251 251 250 250 249 248 247 246 245 245 246 247 248
222 223 226 231 235 237 238 240 242 247 253 262 270 275 278 281 281 280 277 274 271 269 268 271 279 289 294 283 261 244 236 234 232 228 224 222 221 223 225 226 226 227 226 225 224 224 225 225 225 226 228 231 233 235 236 238 239 241 242 244 245 245 246 246 246 246 246 247 249 251 252 252 253 252 252 251 250 249 248 247 247 247 247 247 249 250
222 224 227 231 234 237 239 239 240 242 246 254 262 269 274 278 280 280 279 276 273 271 270 271 276 283 291 292 278 258 244 237 234 231 228 225 224 223 223 224 225 226 226 225 224 224 224 224 225 226 227 229 231 232 234 235 237 238 240 241 242 242 243 243 244 244 245 246 247 249 250 251 252 253 252 252 251 249 248 248 248 248 249 250 251 252
223 225 229 232 235 238 240 240 239 239 241 247 254 261 267 272 276 278 278 277 275 272 270 271 274 278 285 290 290 280 262 248 240 235 232 230 229 228 227 227 229 230 230 230 229 228 228 227 227 227 227 229 230 232 233 235 236 238 239 240 240 240 240 241 241 242 243 244 245 246 247 247 248 249 250 250 250 250 249 249 249 249 250 251 251 252
222 226 230 233 236 239 241 241 239 237 237 240 245 250 255 260 266 272 275 276 275 273 271 271 273 276 281 286 290 291 285 273 258 245 239 236 235 234 232 231 232 233 233 233 233 232 232 231 231 231 232 232 234 235 236 238 239 241 242 242 242 241 241 241 241 241 241 242 243 244 244 244 244 245 245 245 245 245 245 245 246 247 247 248 249 250
223 228 232 234 236 240 242 241 238 235 233 233 234 237 238 242 249 258 266 272 274 274 274 274 274 276 279 283 287 289 289 288 281 268 254 246 242 239 236 233 233 234 235 235 235 235 234 234 235 236 237 238 240 241 242 243 244 245 245 245 244 243 242 242 241 241 242 243 244 244 245 244 244 243 243 242 241 240 240 240 241 242 244 245 246 247
225 229 232 234 237 240 242 241 237 232 229 227 227 227 226 227 232 240 248 258 265 269 271 272 273 275 277 280 284 286 286 287 288 284 273 261 253 247 242 237 235 235 235 235 236 236 236 237 238 239 241 242 244 245 246 247 247 247 247 247 246 245 243 243 242 243 243 244 245 245 245 245 245 244 243 242 241 240 240 241 242 243 244 245 246 246
225 229 231 233 236 240 242 239 233 228 226 224 223 221 219 220 223 227 232 239 248 256 263 268 270 271 273 276 279 281 283 284 285 284 278 270 262 256 251 245 241 238 236 236 236 236 237 239 240 242 243 244 246 248 249 249 249 248 247 246 246 245 245 245 245 245 246 246 246 245 245 244 243 243 242 242 242 243 243 244 245 246 246 246 246 245
224 226 228 231 234 238 238 234 230 226 225 223 221 219 216 216 217 219 221 225 230 238 245 251 256 260 263 266 270 274 277 278 279 278 274 269 263 258 255 251 246 241 239 237 236 236 238 239 241 242 244 245 247 248 249 249 249 249 248 248 247 247 248 248 248 247 247 246 245 243 242 241 241 242 243 244 245 246 246 246 246 245 245 244 244 243
221 223 225 227 230 232 231 229 226 225 224 223 220 217 214 213 214 215 215 216 218 222 227 232 237 243 248 252 256 261 265 268 270 271 267 263 258 254 253 251 247 244 240 239 238 237 238 240 242 243 245 246 247 248 248 249 249 250 250 251 251 251 251 250 249 247 245 243 241 240 240 240 242 244 246 249 250 250 250 248 246 245 243 242 241 240
218 220 222 223 225 226 224 223 223 223 222 220 217 215 213 212 213 215 216 216 216 216 218 221 224 228 231 235 240 245 250 255 258 260 261 258 253 249 247 247 245 242 240 239 238 237 238 240 242 243 244 245 246 247 247 248 250 251 253 253 253 253 251 249 246 244 241 238 237 238 239 241 244 247 249 251 251 250 249 247 245 243 242 240 239 238
212 216 219 220 221 221 219 219 220 222 221 218 214 211 210 210 212 215 217 216 215 215 216 217 219 220 222 224 229 234 239 242 246 249 253 254 250 245 243 242 240 238 236 235 235 235 235 237 238 239 240 241 243 244 245 247 249 250 252 252 251 248 245 243 240 237 236 235 235 236 239 241 243 245 245 245 244 242 241 239 239 237 236 236 235 236
204 212 216 219 220 219 216 216 219 221 220 216 212 208 207 207 209 212 214 215 216 216 217 217 217 217 218 220 224 228 231 234 237 241 246 250 247 243 240 237 234 233 231 229 229 229 229 229 229 229 230 232 234 236 238 240 242 244 245 243 241 237 235 233 232 231 230 231 232 233 233 234 234 233 233 231 230 229 229 229 229 230 232 234 236 239
201 210 216 218 220 219 217 217 219 220 218 214 209 205 205 206 208 210 211 214 215 217 218 218 218 218 218 219 221 223 224 226 227 230 235 241 241 238 235 231 228 225 221 217 215 215 215 216 215 215 216 219 221 222 224 226 228 230 230 229 227 225 224 224 224 224 224 223 223 222 221 220 219 219 219 219 220 221 223 225 228 231 235 239 242 246
204 212 216 219 220 220 218 217 218 217 215 210 204 201 202 205 208 209 211 212 213 213 214 216 217 218 218 218 217 217 215 214 214 216 220 223 224 225 225 222 219 214 207 202 199 197 197 198 199 201 204 206 207 209 210 211 213 214 216 216 216 216 216 216 215 215 215 214 212 212 212 212 213 214 217 219 221 224 227 230 234 238 241 245 248 251
208 213 217 219 219 218 215 211 208 206 204 201 197 195 197 202 206 208 208 207 206 205 204 207 210 211 210 207 205 204 202 200 199 201 202 200 201 206 211 211 208 202 194 190 190 190 189 188 189 191 193 196 199 201 202 203 204 206 207 208 209 209 209 209 209 210 211 212 212 213 215 216 219 222 225 227 229 232 234 237 239 242 245 248 251 253
211 213 215 217 216 212 205 197 191 187 187 186 187 188 193 199 203 204 203 201 198 195 194 195 198 198 198 194 192 190 190 189 189 189 189 187 189 193 199 202 201 198 193 190 192 194 194 193 192 192 192 194 197 198 200 201 202 203 204 205 206 207 207 208 211 215 218 220 223 225 226 228 230 232 233 234 235 237 238 240 242 245 248 250 252 254
210 211 213 214 213 208 200 190 182 178 176 176 177 182 189 195 198 198 196 193 190 188 186 186 186 186 187 185 184 184 184 183 183 183 182 182 184 188 193 195 197 198 198 199 200 202 201 200 199 198 197 198 198 198 199 201 202 203 203 204 206 208 210 212 217 222 226 229 230 232 233 234 235 236 237 237 237 238 239 240 243 245 248 251 253 255
205 208 210 211 210 206 201 195 190 186 183 180 178 180 186 191 193 192 188 185 183 182 181 181 180 179 179 180 179 179 180 180 179 179 179 179 181 184 188 191 193 195 197 200 202 203 202 201 199 197 197 196 196 196 196 198 199 200 201 203 205 208 210 214 218 222 226 228 230 231 232 233 234 235 236 236 237 237 239 241 244 247 250 253 255 257
197 200 202 204 204 203 201 199 198 197 196 193 190 188 187 189 189 187 183 178 176 177 178 179 179 179 179 179 178 177 176 176 175 176 176 177 178 180 183 186 188 189 192 194 196 197 195 194 193 193 192 191 191 191 192 192 193 196 198 201 202 205 207 210 214 217 220 222 224 226 227 229 231 233 234 235 237 239 242 245 248 251 254 256 258 260
186 188 189 191 193 193 193 194 195 197 198 198 197 193 187 183 182 180 177 174 173 174 176 178 180 181 182 182 181 179 176 175 174 174 175 175 176 178 180 182 184 185 187 188 189 190 190 189 189 188 188 186 184 185 188 189 191 193 196 198 200 202 205 207 210 212 215 218 221 223 225 228 231 233 236 238 240 244 247 250 253 255 258 260 261 263
177 175 175 176 178 180 181 183 184 186 189 192 193 191 186 180 175 173 172 170 170 172 174 177 180 182 184 185 186 184 182 180 179 178 176 176 178 180 182 182 185 187 188 188 188 188 189 189 190 190 189 188 187 187 188 191 193 195 197 199 201 203 206 208 211 213 217 220 223 226 229 232 235 238 241 243 246 249 252 255 257 259 261 262 264 265
167 165 164 164 166 168 169 170 172 174 178 182 185 186 185 180 176 172 170 168 167 168 171 174 178 182 185 187 188 188 187 187 186 184 182 182 183 184 185 185 187 190 192 192 192 192 192 192 193 193 193 193 194 194 195 196 197 200 202 205 208 211 212 214 217 220 224 227 230 233 236 238 241 244 246 249 251 253 255 257 259 261 262 263 264 265
160 158 156 156 158 159 160 160 162 164 168 172 177 180 181 179 177 175 173 170 168 168 170 174 179 182 184 186 186 187 187 188 187 187 185 185 186 187 188 187 188 190 193 195 195 196 195 196 196 197 198 199 200 201 202 203 205 207 209 212 215 218 220 221 224 228 231 233 236 239 242 245 247 248 250 252 253 254 256 257 259 260 261 261 262 262
157 154 152 153 154 155 155 155 156 158 160 162 166 168 170 171 171 171 171 171 171 171 173 177 181 183 184 184 183 182 182 182 182 182 182 183 184 186 188 188 189 190 192 194 196 197 198 198 199 201 202 203 205 207 208 210 212 213 216 218 220 223 225 227 230 233 235 237 240 242 244 246 248 250 251 252 254 255 256 256 257 258 259 260 260 260
155 151 150 151 152 153 153 153 153 154 155 156 157 160 162 164 165 165 165 166 167 169 172 176 179 181 181 181 180 179 178 178 178 179 179 180 181 184 186 188 189 191 192 195 196 199 200 202 203 205 206 208 209 211 213 215 217 219 221 222 224 226 229 231 233 235 237 239 241 243 244 246 248 249 251 252 253 254 255 256 256 257 258 258 259 259
156 152 150 150 152 156 159 159 157 155 155 157 160 164 166 167 167 167 167 166 165 166 167 172 176 178 180 179 178 179 179 179 180 181 182 183 184 186 187 189 191 192 194 196 198 201 204 206 208 209 210 211 213 215 217 218 220 222 225 226 228 229 231 234 236 237 239 240 242 243 244 246 247 248 250 251 252 253 255 256 256 257 257 258 259 260
158 155 151 150 156 165 172 173 170 166 165 167 170 173 174 174 173 172 171 170 169 169 170 172 175 178 181 181 181 181 183 184 185 186 189 191 192 192 192 194 195 197 199 200 202 204 207 210 212 213 214 214 216 218 219 221 222 225 227 229 231 232 233 235 237 239 241 242 243 243 244 246 247 249 250 251 252 253 254 255 256 258 259 260 260 261
162 160 157 157 163 175 186 185 180 176 174 175 176 179 180 179 178 176 176 177 177 178 178 178 180 183 186 186 187 187 188 190 192 193 195 197 199 201 201 202 202 204 206 207 208 209 210 213 215 217 217 218 219 220 221 223 225 227 230 232 234 236 237 238 239 241 243 244 245 245 246 247 248 249 250 251 252 253 255 256 257 258 260 261 262 263
166 167 169 171 176 186 195 192 186 181 178 177 179 182 185 185 185 184 185 186 188 189 189 188 190 193 195 195 195 196 197 198 199 200 202 204 206 208 209 210 211 212 214 215 216 216 217 219 220 220 221 222 223 224 224 225 227 230 233 235 238 240 241 242 242 243 245 246 247 248 248 249 250 250 251 253 254 255 256 257 259 260 261 263 264 265
173 176 178 181 185 193 200 198 189 182 179 178 181 186 190 192 192 193 195 197 198 199 199 200 201 202 203 203 204 206 208 207 207 207 208 211 212 214 215 217 218 219 220 221 222 223 224 224 225 226 226 227 228 228 229 230 231 233 236 238 241 243 244 245 245 246 247 248 249 249 250 251 252 253 254 255 256 257 258 259 261 262 263 264 265 265
182 184 184 185 188 194 202 199 190 181 178 180 186 193 199 201 202 203 205 207 208 209 210 211 211 211 210 210 212 214 215 215 215 215 215 217 218 219 220 221 223 225 226 227 228 228 228 229 229 230 231 232 232 232 233 234 236 237 239 241 243 244 246 247 248 248 249 250 251 252 252 253 254 255 256 257 258 259 260 261 262 264 264 265 266 266
187 188 186 185 188 195 203 201 191 183 182 187 194 201 207 209 211 213 215 216 217 217 218 218 218 218 217 217 218 218 219 219 220 220 221 222 223 224 225 226 227 229 230 232 232 233 233 233 233 233 234 235 234 234 235 236 238 240 242 244 245 246 248 249 250 251 251 252 253 254 254 255 256 257 258 260 260 261 262 263 264 265 265 266 267 267
189 189 187 186 190 196 202 202 196 191 192 197 202 207 211 214 217 220 222 223 224 224 224 223 222 221 220 220 220 221 221 221 222 223 224 225 227 227 228 230 231 233 234 235 236 236 236 237 237 237 237 237 236 236 236 238 240 243 245 246 247 248 250 251 251 252 252 253 254 255 256 257 258 259 260 261 262 263 264 265 265 266 266 267 267 268
189 189 188 189 192 196 199 199 197 197 199 202 206 209 211 214 217 221 223 225 226 227 226 225 223 222 221 220 221 221 221 221 221 222 223 226 227 228 229 231 232 233 235 236 237 237 238 239 239 238 239 239 240 240 238 239 241 243 245 246 248 249 250 251 251 252 252 254 255 256 256 257 258 260 261 262 263 264 265 265 266 266 266 267 267 268
Height
2939 2940 2940 2942 2943 2944 2946 2947 2947 2947 2947 2947 2947 2948 2949 2951 2953 2955 2957 2958 2959 2962 2967 2968 2968 2970 2973 2976 2977 2979 2982 2986 2988 2990 2992 2994 2996 2998 3000 3002 3004 3006 3008 3009 3011 3012 3014 3016 3017 3018 3020 3021 3022 3024 3025 3027 3028 3029 3030 3032 3033 3034 3036 3037 3038 3040 3041 3042 3042 3043 3044 3045 3046 3047 3048 3049 3050 3051 3052 3052 3053 3055 3056 3057 3057 3058
2937 2937 2937 2938 2940 2941 2942 2943 2944 2944 2944 2943 2942 2943 2944 2946 2948 2950 2952 2954 2955 2957 2959 2964 2966 2966 2967 2971 2973 2976 2979 2982 2985 2987 2989 2991 2992 2994 2997 2998 3000 3002 3004 3006 3007 3008 3010 3012 3012 3014 3015 3017 3018 3019 3021 3022 3024 3025 3027 3028 3029 3031 3032 3033 3035 3036 3037 3038 3039 3040 3041 3042 3043 3044 3045 3046 3047 3048 3048 3049 3050 3052 3052 3053 3053 3054
2935 2935 2935 2935 2936 2937 2938 2939 2940 2941 2941 2940 2939 2939 2940 2941 2943 2945 2947 2949 2951 2952 2953 2957 2961 2963 2963 2965 2968 2972 2974 2977 2980 2982 2984 2986 2988 2990 2992 2994 2996 2998 3000 3002 3003 3004 3006 3007 3008 3009 3011 3012 3014 3015 3017 3018 3020 3021 3023 3024 3025 3027 3028 3029 3031 3032 3033 3034 3035 3036 3037 3038 3039 3040 3042 3042 3043 3044 3045 3046 3047 3048 3048 3049 3050 3051
2932 2932 2932 2932 2933 2934 2934 2936 2937 2937 2937 2937 2936 2936 2936 2937 2938 2939 2941 2943 2945 2947 2948 2951 2956 2960 2961 2961 2963 2967 2969 2972 2975 2977 2980 2981 2983 2985 2987 2989 2992 2993 2995 2997 2998 3000 3001 3002 3004 3005 3007 3009 3011 3012 3013 3014 3016 3017 3019 3021 3022 3023 3024 3026 3027 3028 3029 3030 3031 3032 3033 3034 3035 3036 3037 3039 3040 3041 3042 3043 3043 3044 3044 3045 3046 3047
2930 2930 2930 2930 2931 2931 2931 2932 2933 2933 2934 2934 2934 2933 2932 2933 2934 2935 2936 2938 2940 2942 2944 2947 2951 2956 2958 2958 2959 2962 2965 2967 2970 2973 2975 2977 2978 2980 2982 2985 2987 2989 2990 2992 2993 2995 2997 2998 3000 3002 3003 3005 3007 3008 3009 3010 3012 3013 3015 3017 3018 3019 3021 3022 3023 3024 3025 3026 3027 3028 3029 3030 3031 3032 3034 3036 3037 3037 3038 3038 3039 3040 3041 3042 3042 3043
2927 2927 2927 2928 2929 2928 2928 2928 2929 2930 2930 2931 2931 2930 2930 2930 2930 2931 2933 2934 2936 2937 2940 2942 2946 2951 2955 2955 2956 2958 2961 2964 2966 2968 2970 2972 2973 2976 2978 2980 2982 2984 2986 2987 2988 2990 2992 2993 2995 2997 2999 3001 3003 3004 3005 3007 3008 3009 3011 3012 3014 3015 3017 3018 3019 3020 3022 3022 3023 3024 3025 3026 3027 3028 3030 3032 3032 3033 3034 3034 3035 3036 3037 3038 3039 3040
2924 2924 2925 2926 2926 2926 2926 2926 2926 2926 2927 2927 2927 2927 2927 2927 2928 2929 2930 2931 2932 2933 2936 2938 2942 2947 2951 2952 2954 2955 2957 2959 2961 2964 2966 2968 2970 2972 2973 2975 2977 2979 2981 2982 2984 2986 2987 2989 2991 2992 2995 2997 2999 3000 3001 3002 3004 3005 3007 3008 3010 3012 3013 3014 3015 3017 3017 3018 3019 3020 3021 3022 3024 3025 3026 3027 3028 3029 3030 3031 3032 3033 3034 3035 3036 3037
2921 2922 2923 2924 2924 2923 2923 2923 2923 2923 2923 2923 2924 2924 2924 2925 2925 2926 2927 2928 2929 2930 2932 2934 2937 2941 2946 2949 2950 2951 2952 2954 2956 2959 2962 2964 2966 2968 2969 2971 2972 2974 2976 2978 2980 2981 2983 2985 2987 2988 2990 2992 2994 2996 2997 2998 2999 3001 3002 3004 3006 3007 3009 3010 3011 3012 3013 3014 3015 3016 3018 3019 3020 3022 3022 3023 3024 3025 3026 3027 3028 3029 3031 3032 3033 3034
2917 2918 2919 2920 2921 2921 2921 2921 2921 2920 2920 2921 2921 2921 2922 2922 2922 2923 2924 2926 2926 2927 2929 2930 2932 2935 2939 2944 2946 2946 2947 2950 2952 2955 2957 2960 2962 2964 2966 2967 2969 2970 2972 2974 2976 2977 2979 2981 2982 2984 2986 2988 2990 2992 2994 2995 2996 2997 2999 3001 3002 3004 3005 3006 3007 3008 3009 3010 3011 3012 3014 3015 3017 3018 3019 3020 3021 3022 3022 3023 3025 3026 3027 3028 3030 3031
2915 2915 2916 2917 2917 2919 2919 2919 2918 2918 2918 2918 2918 2918 2919 2919 2920 2921 2922 2923 2924 2924 2925 2927 2928 2930 2933 2938 2941 2943 2944 2947 2949 2952 2954 2956 2958 2960 2962 2964 2965 2967 2968 2970 2972 2974 2975 2977 2978 2980 2982 2984 2986 2988 2990 2991 2992 2993 2995 2997 2999 3000 3001 3002 3003 3004 3005 3006 3007 3008 3009 3011 3012 3013 3015 3016 3017 3018 3019 3020 3021 3022 3024 3025 3026 3027
2911 2912 2913 2914 2915 2916 2917 2917 2916 2916 2916 2916 2915 2916 2916 2917 2917 2918 2918 2920 2921 2922 2922 2924 2925 2927 2929 2932 2936 2939 2942 2943 2946 2948 2950 2952 2954 2956 2958 2960 2962 2963 2965 2967 2969 2971 2972 2973 2974 2976 2978 2980 2982 2985 2986 2988 2989 2991 2992 2994 2995 2996 2997 2998 2999 3000 3001 3002 3003 3004 3006 3007 3008 3009 3010 3012 3013 3014 3015 3016 3017 3019 3020 3021 3022 3023
2908 2909 2910 2911 2912 2913 2914 2915 2915 2914 2914 2913 2913 2914 2914 2915 2915 2916 2917 2917 2918 2920 2921 2921 2922 2924 2926 2927 2931 2935 2939 2941 2942 2944 2947 2949 2951 2953 2954 2956 2957 2959 2961 2962 2964 2966 2967 2968 2970 2972 2974 2977 2979 2981 2983 2985 2986 2988 2989 2991 2992 2992 2993 2995 2996 2996 2997 2998 2999 3001 3002 3003 3003 3004 3005 3007 3008 3010 3011 3013 3014 3015 3017 3018 3019 3020
2906 2907 2908 2909 2910 2911 2912 2912 2912 2912 2912 2912 2912 2912 2912 2912 2913 2914 2915 2916 2917 2918 2919 2919 2920 2922 2923 2924 2927 2931 2935 2937 2939 2941 2944 2947 2948 2950 2951 2952 2954 2956 2957 2958 2960 2962 2963 2965 2967 2969 2972 2974 2976 2978 2980 2982 2983 2985 2987 2988 2988 2989 2990 2991 2992 2992 2993 2994 2995 2997 2998 2999 3000 3000 3001 3002 3004 3006 3007 3009 3011 3012 3013 3014 3015 3016
2903 2904 2906 2906 2907 2908 2909 2910 2910 2910 2909 2909 2909 2910 2910 2910 2911 2912 2913 2914 2915 2916 2917 2918 2919 2919 2920 2922 2924 2927 2930 2933 2936 2938 2941 2943 2945 2946 2948 2949 2951 2952 2954 2956 2957 2959 2960 2962 2964 2967 2969 2971 2973 2974 2976 2977 2979 2981 2982 2983 2985 2986 2987 2988 2989 2990 2992 2993 2993 2994 2994 2995 2996 2997 2998 2999 3001 3002 3004 3005 3007 3008 3009 3011 3012 3012
2901 2902 2903 2903 2904 2905 2906 2907 2907 2907 2907 2907 2907 2907 2908 2908 2909 2910 2911 2912 2913 2914 2916 2917 2917 2918 2918 2919 2921 2923 2927 2930 2933 2936 2938 2940 2942 2943 2945 2946 2948 2950 2952 2953 2955 2956 2957 2960 2962 2964 2966 2967 2969 2970 2972 2973 2975 2977 2978 2980 2982 2982 2983 2985 2986 2987 2989 2989 2990 2991 2992 2993 2994 2994 2995 2996 2997 2998 3000 3001 3003 3004 3006 3007 3008 3009
2898 2899 2900 2900 2901 2902 2904 2905 2905 2905 2905 2905 2905 2905 2906 2906 2906 2907 2907 2909 2911 2912 2914 2916 2916 2917 2917 2917 2918 2920 2923 2927 2930 2933 2935 2937 2939 2940 2942 2943 2945 2947 2949 2950 2952 2953 2955 2957 2959 2961 2962 2964 2965 2967 2968 2970 2972 2973 2975 2977 2978 2979 2980 2982 2983 2984 2986 2986 2987 2987 2988 2989 2990 2991 2992 2993 2994 2995 2996 2997 2999 3000 3002 3003 3004 3005
2895 2896 2897 2897 2898 2900 2901 2902 2903 2903 2903 2903 2903 2902 2903 2903 2903 2904 2905 2907 2909 2911 2913 2914 2915 2916 2916 2916 2917 2918 2921 2924 2927 2930 2932 2935 2936 2937 2939 2940 2942 2944 2946 2947 2949 2951 2952 2954 2956 2957 2959 2960 2961 2963 2965 2967 2969 2970 2972 2973 2974 2976 2977 2978 2980 2981 2982 2983 2984 2984 2985 2985 2986 2987 2988 2989 2990 2991 2992 2994 2995 2997 2998 2999 3001 3002
2892 2893 2894 2895 2896 2897 2898 2899 2900 2901 2901 2901 2900 2900 2900 2900 2901 2902 2903 2905 2907 2909 2911 2913 2914 2915 2916 2915 2915 2916 2917 2920 2924 2927 2930 2932 2933 2934 2936 2937 2939 2941 2943 2945 2947 2948 2950 2951 2953 2954 2956 2957 2958 2960 2962 2964 2966 2967 2969 2970 2972 2973 2974 2975 2977 2978 2979 2980 2981 2981 2982 2982 2982 2983 2984 2985 2986 2987 2988 2990 2991 2992 2994 2996 2997 2998
2889 2890 2891 2892 2893 2894 2895 2897 2897 2898 2898 2898 2897 2897 2897 2898 2899 2900 2902 2903 2905 2907 2909 2911 2912 2914 2915 2915 2915 2915 2916 2917 2920 2923 2927 2929 2931 2932 2933 2935 2936 2938 2940 2942 2943 2945 2947 2948 2950 2951 2952 2954 2955 2957 2959 2960 2962 2964 2966 2967 2969 2970 2972 2973 2974 2975 2976 2977 2978 2979 2980 2980 2981 2981 2982 2982 2983 2984 2985 2987 2988 2989 2990 2991 2992 2994
2887 2888 2889 2890 2891 2892 2893 2894 2895 2895 2896 2895 2895 2895 2896 2896 2897 2898 2900 2902 2903 2905 2907 2909 2911 2912 2913 2914 2914 2915 2916 2916 2917 2919 2922 2926 2928 2929 2930 2932 2933 2934 2936 2938 2940 2942 2943 2945 2947 2948 2949 2951 2952 2954 2955 2957 2959 2961 2962 2964 2965 2967 2968 2969 2970 2972 2973 2974 2975 2976 2977 2978 2979 2980 2980 2981 2982 2983 2983 2985 2986 2987 2988 2989 2990 2991
2885 2887 2888 2889 2890 2890 2891 2891 2892 2892 2893 2892 2892 2893 2894 2895 2896 2897 2898 2900 2902 2903 2906 2907 2909 2911 2912 2913 2913 2914 2915 2916 2916 2917 2919 2922 2924 2925 2927 2928 2930 2932 2933 2935 2937 2938 2940 2942 2943 2945 2946 2948 2949 2951 2952 2954 2956 2957 2959 2960 2962 2963 2964 2966 2967 2968 2969 2970 2971 2972 2973 2974 2975 2976 2977 2978 2979 2980 2981 2982 2983 2985 2986 2987 2987 2988
2884 2885 2886 2887 2888 2888 2888 2889 2889 2890 2890 2890 2890 2891 2892 2893 2895 2896 2897 2898 2900 2902 2903 2905 2907 2909 2910 2911 2912 2913 2914 2915 2915 2916 2917 2918 2920 2921 2922 2925 2927 2929 2931 2932 2934 2935 2937 2938 2940 2942 2943 2945 2946 2947 2949 2950 2952 2953 2955 2956 2958 2959 2961 2962 2963 2964 2966 2967 2967 2968 2969 2970 2971 2972 2972 2973 2974 2975 2976 2977 2978 2980 2981 2982 2983 2983
2882 2882 2884 2885 2885 2885 2886 2886 2887 2887 2887 2888 2889 2890 2891 2892 2893 2895 2896 2897 2899 2900 2902 2903 2905 2907 2908 2910 2911 2912 2913 2914 2914 2915 2916 2917 2918 2919 2919 2922 2924 2926 2928 2930 2931 2933 2934 2936 2937 2939 2940 2941 2942 2944 2945 2947 2948 2949 2951 2953 2954 2956 2957 2958 2960 2961 2962 2963 2964 2965 2966 2967 2967 2968 2969 2970 2970 2971 2972 2973 2975 2976 2977 2978 2978 2979
2879 2881 2882 2882 2883 2883 2883 2883 2884 2885 2886 2887 2888 2889 2890 2891 2892 2893 2894 2896 2897 2899 2901 2902 2904 2905 2907 2908 2909 2911 2912 2912 2913 2914 2915 2916 2917 2917 2918 2920 2922 2923 2925 2927 2928 2930 2932 2933 2934 2936 2937 2938 2939 2941 2942 2943 2945 2947 2948 2949 2951 2952 2954 2955 2956 2957 2959 2960 2961 2962 2962 2963 2964 2964 2965 2966 2967 2968 2969 2971 2972 2973 2974 2975 2975 2975
2877 2878 2879 2880 2881 2881 2881 2881 2882 2883 2884 2885 2886 2887 2888 2890 2891 2892 2893 2894 2896 2897 2899 2901 2902 2903 2905 2907 2908 2909 2910 2911 2912 2913 2913 2915 2916 2917 2917 2918 2919 2921 2922 2924 2926 2927 2929 2930 2931 2932 2934 2935 2936 2937 2939 2940 2942 2944 2945 2947 2948 2949 2951 2952 2953 2954 2955 2956 2957 2958 2958 2959 2960 2961 2962 2962 2964 2965 2967 2968 2969 2970 2970 2971 2971 2972
2875 2876 2877 2878 2879 2879 2879 2880 2880 2881 2882 2883 2885 2886 2887 2888 2890 2891 2892 2893 2894 2896 2897 2899 2901 2902 2903 2905 2907 2907 2908 2909 2910 2911 2912 2913 2914 2915 2915 2916 2917 2919 2920 2921 2923 2925 2926 2927 2928 2929 2931 2932 2933 2934 2936 2937 2939 2941 2942 2944 2945 2947 2948 2949 2950 2951 2952 2952 2953 2954 2955 2956 2957 2958 2959 2960 2962 2963 2964 2965 2966 2967 2967 2968 2968 2969
2873 2874 2875 2876 2877 2878 2878 2878 2879 2880 2881 2882 2883 2884 2886 2887 2888 2890 2891 2892 2893 2895 2896 2898 2899 2901 2902 2903 2904 2906 2907 2907 2908 2909 2910 2910 2911 2912 2913 2914 2915 2917 2918 2919 2920 2922 2923 2924 2925 2927 2928 2929 2930 2932 2933 2934 2936 2937 2939 2941 2942 2944 2945 2946 2947 2948 2949 2950 2951 2952 2953 2954 2955 2956 2957 2958 2960 2961 2962 2963 2964 2964 2965 2966 2967 2967
2871 2872 2873 2874 2875 2876 2877 2877 2877 2878 2879 2880 2882 2883 2884 2886 2887 2888 2889 2890 2892 2894 2895 2897 2898 2899 2900 2902 2902 2903 2905 2905 2906 2907 2907 2908 2909 2910 2911 2911 2912 2914 2915 2916 2917 2919 2921 2922 2923 2924 2925 2927 2928 2929 2930 2932 2933 2934 2936 2937 2939 2941 2942 2943 2944 2946 2947 2948 2949 2950 2951 2952 2953 2954 2955 2956 2957 2959 2960 2961 2962 2962 2963 2964 2965 2966
2869 2870 2871 2872 2874 2875 2875 2875 2876 2877 2877 2878 2880 2881 2882 2884 2886 2887 2887 2889 2891 2892 2893 2894 2896 2897 2898 2899 2900 2901 2902 2903 2903 2904 2906 2906 2907 2908 2908 2909 2910 2912 2912 2914 2915 2916 2918 2919 2920 2921 2923 2924 2926 2927 2928 2929 2931 2932 2933 2935 2936 2938 2939 2941 2942 2944 2945 2947 2947 2948 2949 2950 2951 2952 2953 2954 2956 2957 2957 2958 2960 2961 2961 2962 2963 2964
2867 2868 2869 2871 2872 2873 2873 2874 2874 2875 2876 2877 2878 2879 2881 2882 2884 2885 2886 2888 2889 2890 2891 2892 2894 2895 2896 2897 2898 2899 2900 2900 2901 2902 2903 2904 2905 2906 2907 2908 2909 2910 2911 2912 2913 2914 2915 2916 2917 2919 2921 2922 2924 2925 2926 2927 2929 2931 2932 2933 2935 2936 2937 2939 2940 2942 2943 2944 2946 2947 2947 2948 2949 2950 2951 2952 2953 2955 2956 2957 2957 2958 2959 2960 2961 2962
2865 2866 2867 2869 2870 2871 2871 2872 2873 2874 2875 2876 2877 2878 2880 2881 2882 2884 2885 2887 2888 2889 2890 2891 2892 2894 2895 2895 2896 2897 2897 2898 2900 2901 2902 2903 2904 2905 2907 2908 2908 2909 2910 2911 2912 2913 2913 2914 2916 2917 2919 2921 2922 2923 2925 2926 2928 2929 2931 2932 2934 2935 2936 2937 2939 2940 2942 2943 2944 2945 2946 2947 2947 2948 2949 2951 2952 2952 2953 2954 2955 2956 2957 2958 2959 2960
2864 2865 2866 2867 2868 2869 2870 2871 2872 2873 2874 2875 2876 2877 2879 2880 2882 2883 2884 2886 2887 2888 2889 2890 2892 2892 2893 2894 2895 2896 2896 2897 2898 2899 2900 2902 2903 2904 2906 2907 2908 2909 2910 2911 2912 2913 2913 2914 2916 2917 2918 2920 2921 2923 2924 2926 2927 2929 2930 2932 2933 2935 2936 2937 2938 2939 2941 2942 2942 2943 2944 2945 2946 2947 2948 2949 2950 2951 2952 2953 2954 2954 2955 2957 2957 2958
2862 2863 2864 2865 2866 2867 2868 2869 2870 2871 2872 2874 2875 2877 2878 2880 2881 2882 2883 2885 2886 2887 2888 2889 2891 2892 2892 2893 2894 2895 2896 2897 2897 2898 2900 2901 2902 2904 2905 2907 2908 2909 2911 2912 2912 2913 2914 2915 2916 2917 2918 2920 2921 2922 2924 2926 2927 2928 2930 2931 2933 2934 2935 2936 2937 2939 2940 2941 2942 2942 2943 2944 2945 2946 2947 2948 2949 2949 2950 2951 2952 2953 2954 2955 2956 2957
2861 2862 2863 2864 2866 2867 2867 2868 2869 2870 2872 2873 2874 2876 2877 2879 2880 2882 2882 2883 2885 2886 2887 2888 2890 2891 2892 2893 2893 2894 2895 2896 2897 2898 2899 2901 2902 2903 2905 2906 2907 2909 2910 2911 2912 2913 2914 2915 2916 2917 2918 2919 2921 2922 2923 2925 2926 2927 2929 2930 2932 2933 2934 2935 2937 2937 2939 2940 2941 2942 2942 2943 2944 2945 2946 2947 2947 2948 2949 2950 2951 2952 2952 2953 2954 2955
2861 2862 2863 2864 2865 2866 2867 2868 2869 2870 2871 2872 2873 2875 2877 2878 2879 2881 2882 2883 2884 2885 2886 2888 2889 2890 2891 2892 2892 2893 2894 2895 2896 2897 2899 2900 2901 2902 2904 2905 2907 2908 2909 2910 2911 2912 2913 2914 2915 2916 2917 2919 2920 2921 2923 2924 2925 2927 2928 2929 2931 2932 2933 2934 2935 2936 2937 2938 2939 2940 2941 2942 2943 2944 2945 2946 2947 2947 2948 2949 2950 2951 2951 2952 2953 2953
2861 2862 2863 2864 2865 2866 2867 2867 2869 2870 2871 2872 2874 2875 2876 2877 2878 2880 2881 2882 2883 2885 2886 2887 2888 2889 2890 2891 2892 2892 2893 2894 2896 2897 2898 2899 2901 2902 2903 2904 2906 2907 2908 2909 2910 2911 2912 2913 2914 2916 2917 2918 2919 2921 2922 2923 2925 2926 2927 2928 2930 2931 2932 2933 2934 2935 2936 2937 2938 2939 2940 2941 2942 2943 2944 2945 2946 2947 2947 2948 2949 2949 2950 2951 2952 2952
2861 2862 2862 2863 2864 2865 2866 2867 2868 2870 2871 2872 2874 2875 2877 2877 2878 2880 2881 2882 2883 2884 2885 2887 2887 2888 2889 2890 2891 2892 2893 2894 2895 2896 2897 2899 2900 2901 2902 2904 2905 2906 2907 2908 2909 2910 2911 2912 2913 2915 2916 2917 2918 2920 2921 2922 2924 2925 2926 2928 2929 2930 2931 2932 2933 2934 2935 2937 2937 2938 2939 2940 2941 2942 2943 2944 2945 2945 2946 2947 2947 2948 2949 2949 2950 2951
2860 2861 2862 2863 2864 2865 2866 2867 2869 2870 2871 2872 2874 2875 2877 2878 2879 2880 2881 2882 2883 2884 2885 2886 2887 2888 2889 2890 2890 2891 2892 2893 2895 2896 2897 2898 2899 2901 2902 2903 2904 2905 2906 2907 2908 2909 2910 2912 2913 2914 2915 2917 2918 2919 2921 2922 2923 2924 2926 2927 2928 2929 2930 2932 2932 2933 2934 2936 2937 2937 2938 2939 2940 2941 2942 2943 2943 2944 2945 2946 2946 2947 2948 2948 2949 2949
2860 2861 2862 2863 2864 2865 2867 2868 2869 2870 2871 2872 2874 2875 2877 2878 2879 2880 2881 2882 2882 2883 2884 2885 2886 2887 2888 2889 2890 2891 2892 2893 2894 2895 2897 2898 2899 2900 2902 2902 2904 2905 2906 2907 2907 2909 2910 2911 2912 2913 2915 2916 2917 2919 2920 2921 2922 2924 2925 2926 2927 2928 2930 2931 2932 2932 2933 2934 2936 2937 2937 2938 2939 2940 2941 2942 2942 2943 2944 2944 2945 2946 2946 2947 2947 2948
2860 2861 2862 2863 2864 2866 2867 2868 2869 2870 2871 2872 2874 2875 2876 2877 2879 2880 2881 2882 2882 2883 2884 2885 2885 2886 2887 2888 2889 2890 2892 2892 2894 2895 2896 2897 2899 2900 2901 2902 2903 2904 2905 2906 2907 2908 2909 2910 2912 2913 2914 2915 2917 2918 2919 2921 2922 2923 2924 2925 2926 2927 2928 2930 2931 2932 2932 2933 2934 2936 2936 2937 2938 2939 2939 2940 2941 2942 2942 2943 2944 2944 2945 2946 2946 2947
2860 2861 2862 2863 2864 2866 2867 2868 2869 2870 2871 2872 2874 2875 2876 2877 2878 2879 2880 2881 2882 2882 2883 2884 2885 2886 2887 2888 2889 2890 2891 2892 2893 2895 2896 2897 2898 2900 2901 2902 2903 2904 2905 2906 2907 2908 2909 2910 2911 2912 2914 2915 2916 2917 2919 2920 2921 2922 2923 2924 2925 2926 2927 2929 2930 2930 2931 2932 2933 2934 2935 2936 2937 2937 2938 2939 2940 2940 2941 2942 2942 2943 2944 2944 2945 2945
2860 2861 2862 2863 2864 2866 2867 2868 2869 2871 2872 2873 2874 2875 2876 2877 2878 2879 2880 2881 2882 2882 2883 2884 2885 2886 2887 2887 2889 2890 2891 2892 2893 2895 2896 2897 2898 2900 2901 2902 2903 2904 2905 2906 2907 2907 2909 2910 2911 2912 2913 2914 2916 2917 2918 2919 2920 2921 2922 2923 2924 2925 2926 2927 2928 2929 2930 2931 2932 2933 2934 2935 2935 2936 2937 2938 2938 2939 2940 2940 2941 2942 2942 2943 2943 2944
2859 2861 2862 2863 2864 2866 2867 2868 2869 2871 2872 2873 2874 2875 2877 2877 2878 2879 2880 2881 2882 2882 2883 2883 2884 2885 2887 2887 2888 2890 2891 2892 2893 2895 2896 2897 2898 2900 2901 2902 2903 2904 2905 2906 2907 2907 2908 2910 2911 2912 2912 2914 2915 2916 2917 2918 2919 2920 2921 2922 2923 2924 2925 2926 2927 2928 2929 2930 2931 2932 2933 2933 2934 2935 2936 2936 2937 2937 2938 2939 2939 2940 2941 2941 2942 2942
2860 2861 2862 2863 2865 2866 2867 2868 2869 2871 2872 2873 2874 2875 2876 2877 2878 2879 2880 2881 2881 2882 2883 2883 2884 2885 2887 2887 2888 2889 2891 2892 2893 2894 2896 2897 2898 2899 2901 2902 2903 2904 2905 2905 2906 2907 2908 2909 2910 2911 2912 2913 2914 2915 2916 2917 2918 2919 2920 2921 2922 2923 2924 2925 2926 2927 2928 2929 2930 2931 2932 2932 2933 2934 2934 2935 2936 2936 2937 2937 2938 2938 2939 2940 2940 2940
2860 2861 2862 2863 2865 2866 2867 2868 2869 2871 2872 2873 2874 2875 2876 2877 2878 2879 2879 2880 2881 2882 2883 2884 2885 2886 2886 2887 2888 2889 2891 2892 2893 2894 2896 2897 2898 2899 2900 2902 2902 2903 2904 2905 2906 2907 2908 2909 2910 2910 2911 2912 2913 2914 2915 2917 2917 2918 2919 2920 2921 2922 2923 2924 2925 2926 2927 2927 2928 2929 2930 2931 2932 2932 2933 2933 2934 2935 2936 2936 2937 2937 2937 2938 2938 2939
2860 2861 2862 2863 2865 2866 2867 2868 2869 2870 2871 2872 2873 2875 2876 2877 2878 2879 2880 2880 2881 2882 2883 2884 2885 2885 2886 2887 2888 2889 2890 2892 2893 2894 2895 2897 2898 2899 2900 2901 2902 2903 2904 2905 2906 2907 2907 2908 2909 2910 2911 2912 2912 2913 2915 2916 2917 2917 2918 2919 2920 2921 2922 2923 2924 2925 2926 2927 2927 2928 2929 2930 2930 2931 2931 2932 2932 2933 2934 2934 2935 2935 2936 2936 2937 2937
2860 2861 2862 2863 2865 2866 2867 2868 2869 2870 2871 2872 2873 2874 2876 2877 2878 2879 2880 2880 2881 2882 2883 2883 2884 2885 2886 2887 2888 2889 2890 2891 2892 2894 2895 2896 2897 2899 2900 2901 2902 2902 2903 2904 2905 2906 2907 2908 2908 2909 2910 2911 2912 2913 2914 2915 2916 2917 2917 2918 2919 2920 2921 2922 2923 2924 2925 2925 2926 2927 2928 2928 2929 2929 2930 2931 2931 2932 2932 2933 2933 2934 2934 2934 2935 2935
2860 2861 2862 2863 2865 2866 2867 2869 2870 2871 2871 2872 2873 2874 2876 2877 2877 2878 2879 2880 2881 2882 2882 2883 2884 2885 2886 2887 2888 2889 2890 2891 2892 2893 2894 2896 2897 2898 2899 2900 2901 2902 2903 2903 2904 2905 2906 2907 2908 2909 2909 2910 2911 2912 2913 2914 2915 2916 2916 2917 2918 2919 2920 2921 2922 2923 2924 2924 2925 2926 2927 2927 2927 2928 2928 2929 2929 2930 2930 2931 2932 2932 2932 2932 2932 2933
2860 2861 2862 2864 2865 2866 2867 2869 2870 2871 2872 2872 2873 2874 2875 2876 2877 2878 2879 2879 2880 2881 2882 2882 2883 2884 2885 2886 2887 2888 2889 2891 2892 2893 2894 2895 2896 2897 2898 2899 2900 2901 2902 2903 2904 2904 2905 2906 2907 2908 2909 2909 2910 2911 2912 2913 2914 2914 2915 2916 2917 2918 2919 2920 2921 2922 2922 2923 2923 2924 2925 2926 2926 2927 2927 2927 2928 2928 2929 2929 2930 2930 2930 2930 2931 2931
2860 2861 2862 2864 2865 2866 2867 2868 2870 2871 2872 2872 2873 2874 2875 2876 2877 2877 2878 2878 2879 2880 2881 2881 2882 2883 2884 2885 2887 2888 2889 2890 2891 2892 2893 2894 2895 2896 2897 2898 2899 2900 2901 2902 2903 2904 2905 2905 2906 2907 2908 2909 2910 2910 2911 2912 2913 2913 2914 2915 2916 2917 2917 2918 2919 2920 2921 2922 2922 2923 2923 2924 2925 2925 2926 2926 2926 2927 2927 2927 2928 2928 2928 2928 2929 2929
2860 2861 2862 2864 2865 2866 2867 2868 2869 2871 2872 2872 2873 2874 2875 2876 2877 2877 2877 2878 2879 2879 2880 2881 2882 2883 2884 2885 2886 2887 2888 2889 2891 2892 2892 2893 2895 2896 2897 2897 2898 2899 2900 2901 2902 2903 2904 2904 2905 2906 2907 2908 2909 2909 2910 2911 2912 2912 2913 2914 2915 2916 2917 2917 2918 2919 2920 2920 2921 2922 2922 2922 2923 2924 2924 2924 2925 2925 2926 2926 2926 2926 2927 2927 2927 2927